SAS717 LROP-LTFM

Flight info

Callsign SAS717
Flight time 0h 56m
Altitude 41000
Route IDARU1M/26R IDARU DCT NONQE DCT MAXOV DCT MATEL L620 RIXEN
Aircraft B736/M-SDE2E3FGHIRWXY/LB1

Departure

Time 2026-05-05 18:52
Airport Bucharest Henri Coandă International Airport (LROP)

Arrival

Time 2026-05-05 19:49
Airport İstanbul Airport (LTFM)
Time Latitude Longitude Altitude Speed Heading
2026-05-05 18:16 44.57021 26.08133 319 ft 0 kts 354°
2026-05-05 18:41 44.57020 26.08134 293 ft 2 kts 354°
2026-05-05 18:42 44.57004 26.08136 320 ft 2 kts 354°
2026-05-05 18:42 44.56988 26.08138 320 ft 2 kts 354°
2026-05-05 18:42 44.56971 26.08140 319 ft 2 kts 354°
2026-05-05 18:42 44.56955 26.08141 321 ft 2 kts 17°
2026-05-05 18:43 44.56941 26.08131 318 ft 2 kts 53°
2026-05-05 18:43 44.56936 26.08117 318 ft 0 kts 86°
2026-05-05 18:47 44.56937 26.08129 318 ft 3 kts 85°
2026-05-05 18:47 44.56940 26.08176 321 ft 7 kts 83°
2026-05-05 18:48 44.56945 26.08227 321 ft 9 kts 84°
2026-05-05 18:48 44.56952 26.08334 321 ft 13 kts 83°
2026-05-05 18:48 44.57024 26.08385 321 ft 15 kts 352°
2026-05-05 18:48 44.57162 26.08365 321 ft 15 kts 354°
2026-05-05 18:49 44.57229 26.08430 321 ft 14 kts 82°
2026-05-05 18:49 44.57262 26.08498 321 ft 14 kts
2026-05-05 18:49 44.57355 26.08487 322 ft 13 kts 353°
2026-05-05 18:49 44.57443 26.08472 322 ft 13 kts 354°
2026-05-05 18:50 44.57530 26.08460 320 ft 12 kts 354°
2026-05-05 18:50 44.57615 26.08450 322 ft 12 kts
2026-05-05 18:50 44.57670 26.08524 323 ft 12 kts 76°
2026-05-05 18:50 44.57674 26.08565 323 ft 0 kts 84°
2026-05-05 18:51 44.57678 26.08617 322 ft 19 kts 84°
2026-05-05 18:51 44.57716 26.09152 321 ft 89 kts 84°
2026-05-05 18:51 44.57798 26.10291 322 ft 142 kts 87°
2026-05-05 18:52 44.57881 26.11829 517 ft 166 kts 85°
2026-05-05 18:52 44.58000 26.13435 1141 ft 166 kts 86°
2026-05-05 18:52 44.58120 26.15115 1550 ft 180 kts 86°
2026-05-05 18:52 44.58239 26.16911 2049 ft 187 kts 87°
2026-05-05 18:53 44.58341 26.18669 2997 ft 174 kts 86°
2026-05-05 18:53 44.58417 26.20259 4071 ft 156 kts 85°
2026-05-05 18:53 44.58472 26.21910 4348 ft 196 kts 85°
2026-05-05 18:53 44.58542 26.24221 3648 ft 276 kts 86°
2026-05-05 18:54 44.58640 26.27095 4020 ft 293 kts 86°
2026-05-05 18:54 44.58726 26.29606 6303 ft 222 kts 84°
2026-05-05 18:54 44.58773 26.31489 8395 ft 175 kts 84°
2026-05-05 18:54 44.58426 26.33276 8985 ft 216 kts 122°
2026-05-05 18:55 44.57103 26.34599 9295 ft 255 kts 159°
2026-05-05 18:55 44.55308 26.35329 9593 ft 289 kts 164°
2026-05-05 18:55 44.53268 26.36042 10117 ft 310 kts 165°
2026-05-05 18:55 44.51092 26.36805 10506 ft 337 kts 163°
2026-05-05 18:56 44.48761 26.37836 10766 ft 364 kts 158°
2026-05-05 18:56 44.46384 26.39231 11474 ft 372 kts 152°
2026-05-05 18:56 44.44074 26.40907 12445 ft 374 kts 147°
2026-05-05 18:56 44.41865 26.42761 13416 ft 376 kts 144°
2026-05-05 18:57 44.39667 26.44792 14331 ft 380 kts 142°
2026-05-05 18:57 44.37492 26.46927 15205 ft 383 kts 141°
2026-05-05 18:57 44.35320 26.49135 16100 ft 387 kts 141°
2026-05-05 18:57 44.33140 26.51392 16978 ft 391 kts 140°
2026-05-05 18:58 44.30947 26.53683 17856 ft 396 kts 141°
2026-05-05 18:58 44.28732 26.56005 18656 ft 400 kts 141°
2026-05-05 18:58 44.26493 26.58352 19373 ft 405 kts 141°
2026-05-05 18:58 44.24225 26.60728 20096 ft 410 kts 141°
2026-05-05 18:59 44.21927 26.63132 20810 ft 415 kts 141°
2026-05-05 18:59 44.19625 26.65538 21514 ft 420 kts 141°
2026-05-05 18:59 44.17268 26.67996 22221 ft 425 kts 141°
2026-05-05 18:59 44.14881 26.70484 22875 ft 430 kts 141°
2026-05-05 19:00 44.12494 26.72968 23492 ft 436 kts 141°
2026-05-05 19:00 44.10042 26.75517 24074 ft 441 kts 141°
2026-05-05 19:00 44.07567 26.78066 24670 ft 444 kts 142°
2026-05-05 19:00 44.05053 26.80604 25254 ft 448 kts 142°
2026-05-05 19:01 44.02514 26.83162 25868 ft 451 kts 142°
2026-05-05 19:01 43.99999 26.85711 26480 ft 453 kts 142°
2026-05-05 19:01 43.97438 26.88326 27029 ft 457 kts 142°
2026-05-05 19:01 43.94867 26.90965 27540 ft 461 kts 142°
2026-05-05 19:02 43.92282 26.93628 28045 ft 464 kts 142°
2026-05-05 19:02 43.89673 26.96320 28548 ft 468 kts 142°
2026-05-05 19:02 43.87048 26.99027 29005 ft 472 kts 142°
2026-05-05 19:02 43.84426 27.01730 29364 ft 478 kts 142°
2026-05-05 19:03 43.81739 27.04496 29901 ft 479 kts 142°
2026-05-05 19:03 43.79061 27.07247 30430 ft 480 kts 142°
2026-05-05 19:03 43.76372 27.10007 30802 ft 482 kts 142°
2026-05-05 19:03 43.73663 27.12784 31201 ft 484 kts 142°
2026-05-05 19:04 43.70954 27.15556 31680 ft 483 kts 142°
2026-05-05 19:04 43.68261 27.18310 32208 ft 481 kts 142°
2026-05-05 19:04 43.65573 27.21055 32699 ft 480 kts 142°
2026-05-05 19:04 43.62918 27.23764 33166 ft 479 kts 142°
2026-05-05 19:05 43.60262 27.26468 34048 ft 468 kts 143°
2026-05-05 19:05 43.57646 27.29131 34445 ft 468 kts 142°
2026-05-05 19:05 43.52331 27.34535 34716 ft 478 kts 142°
2026-05-05 19:06 43.49650 27.37256 35081 ft 477 kts 142°
2026-05-05 19:06 43.46976 27.39966 35465 ft 475 kts 142°
2026-05-05 19:06 43.44308 27.42667 35794 ft 476 kts 142°
2026-05-05 19:06 43.41676 27.45328 36160 ft 474 kts 143°
2026-05-05 19:07 43.39019 27.48011 36582 ft 472 kts 143°
2026-05-05 19:07 43.36366 27.50688 36833 ft 474 kts 143°
2026-05-05 19:07 43.33696 27.53379 37049 ft 476 kts 143°
2026-05-05 19:07 43.31022 27.56072 37319 ft 476 kts 143°
2026-05-05 19:08 43.28342 27.58767 37622 ft 476 kts 143°
2026-05-05 19:08 43.25666 27.61454 37912 ft 476 kts 143°
2026-05-05 19:08 43.23020 27.64109 38182 ft 477 kts 143°
2026-05-05 19:08 43.20334 27.66801 38409 ft 479 kts 143°
2026-05-05 19:09 43.17642 27.69496 38658 ft 479 kts 143°
2026-05-05 19:09 43.14949 27.72190 38898 ft 479 kts 143°
2026-05-05 19:09 43.12245 27.74890 39131 ft 478 kts 143°
2026-05-05 19:09 43.09581 27.77548 39354 ft 478 kts 143°
2026-05-05 19:10 43.06889 27.80231 39571 ft 478 kts 143°
2026-05-05 19:10 43.04196 27.82912 39763 ft 478 kts 143°
2026-05-05 19:10 43.01490 27.85603 39939 ft 479 kts 143°
2026-05-05 19:10 42.98790 27.88285 40142 ft 479 kts 143°
2026-05-05 19:11 42.96095 27.90960 40367 ft 478 kts 143°
2026-05-05 19:11 42.93430 27.93600 40591 ft 478 kts 143°
2026-05-05 19:11 42.90739 27.96265 40798 ft 477 kts 143°
2026-05-05 19:11 42.88043 27.98932 40979 ft 478 kts 143°
2026-05-05 19:12 42.85349 28.01593 41088 ft 480 kts 143°
2026-05-05 19:12 42.82627 28.04279 41079 ft 481 kts 143°
2026-05-05 19:12 42.77249 28.09577 41068 ft 477 kts 143°
2026-05-05 19:13 42.71876 28.14858 41080 ft 475 kts 143°
2026-05-05 19:13 42.66513 28.20119 41065 ft 474 kts 143°
2026-05-05 19:14 42.63815 28.22762 40474 ft 482 kts 143°
2026-05-05 19:14 42.61098 28.25419 39840 ft 480 kts 143°
2026-05-05 19:14 42.58418 28.28038 39162 ft 480 kts 143°
2026-05-05 19:14 42.55710 28.30682 38348 ft 481 kts 143°
2026-05-05 19:15 42.52987 28.33337 37512 ft 480 kts 143°
2026-05-05 19:15 42.50267 28.35985 36727 ft 478 kts 143°
2026-05-05 19:15 42.47602 28.38578 35946 ft 476 kts 143°
2026-05-05 19:15 42.44903 28.41201 35094 ft 477 kts 143°
2026-05-05 19:16 42.42197 28.43828 34193 ft 477 kts 143°
2026-05-05 19:16 42.39496 28.46448 33100 ft 478 kts 143°
2026-05-05 19:16 42.36783 28.49076 32071 ft 477 kts 143°
2026-05-05 19:16 42.34086 28.51686 31016 ft 477 kts 142°
2026-05-05 19:17 42.31419 28.54264 29897 ft 477 kts 142°
2026-05-05 19:17 42.28714 28.56877 28574 ft 477 kts 142°
2026-05-05 19:17 42.26012 28.59483 27332 ft 477 kts 143°
2026-05-05 19:17 42.23335 28.62062 26477 ft 468 kts 143°
2026-05-05 19:18 42.20699 28.64599 25582 ft 461 kts 143°
2026-05-05 19:18 42.18103 28.67095 24722 ft 455 kts 143°
2026-05-05 19:18 42.15535 28.69564 23878 ft 450 kts 143°
2026-05-05 19:18 42.13012 28.71985 23501 ft 434 kts 143°
2026-05-05 19:19 42.10625 28.74271 23205 ft 417 kts 143°
2026-05-05 19:19 42.08143 28.76114 23002 ft 403 kts 159°
2026-05-05 19:19 42.05434 28.76847 22746 ft 394 kts 176°
2026-05-05 19:19 42.02702 28.76961 22486 ft 394 kts 178°
2026-05-05 19:20 41.99929 28.77015 22211 ft 401 kts 178°
2026-05-05 19:20 41.97129 28.77075 21921 ft 403 kts 178°
2026-05-05 19:20 41.94338 28.77159 21635 ft 399 kts 178°
2026-05-05 19:20 41.91559 28.77262 21364 ft 397 kts 177°
2026-05-05 19:21 41.88829 28.77372 21091 ft 396 kts 177°
2026-05-05 19:21 41.86086 28.77483 20821 ft 394 kts 177°
2026-05-05 19:21 41.83342 28.77591 20545 ft 393 kts 178°
2026-05-05 19:21 41.80640 28.77695 20264 ft 383 kts 178°
2026-05-05 19:22 41.78020 28.77375 19975 ft 374 kts 197°
2026-05-05 19:22 41.75714 28.75894 19748 ft 362 kts 216°
2026-05-05 19:22 41.73891 28.73662 19500 ft 350 kts 233°
2026-05-05 19:22 41.72449 28.71072 19277 ft 345 kts 237°
2026-05-05 19:23 41.71078 28.68454 19044 ft 343 kts 237°
2026-05-05 19:23 41.69720 28.65888 18803 ft 341 kts 236°
2026-05-05 19:23 41.68330 28.63312 18575 ft 340 kts 236°
2026-05-05 19:23 41.66939 28.60758 18334 ft 339 kts 236°
2026-05-05 19:24 41.65545 28.58210 18059 ft 338 kts 236°
2026-05-05 19:24 41.64157 28.55674 17808 ft 337 kts 236°
2026-05-05 19:24 41.62774 28.53149 17568 ft 336 kts 236°
2026-05-05 19:24 41.61394 28.50630 17332 ft 335 kts 236°
2026-05-05 19:25 41.60017 28.48119 17098 ft 334 kts 236°
2026-05-05 19:25 41.58644 28.45618 16867 ft 334 kts 236°
2026-05-05 19:25 41.57273 28.43120 16630 ft 333 kts 236°
2026-05-05 19:25 41.55897 28.40617 16403 ft 333 kts 236°
2026-05-05 19:26 41.54524 28.38123 16176 ft 333 kts 236°
2026-05-05 19:26 41.53143 28.35628 15867 ft 336 kts 236°
2026-05-05 19:26 41.51743 28.33151 15511 ft 340 kts 236°
2026-05-05 19:26 41.50311 28.30637 15145 ft 339 kts 236°
2026-05-05 19:27 41.48891 28.28145 14779 ft 335 kts 236°
2026-05-05 19:27 41.47487 28.25676 14421 ft 331 kts 236°
2026-05-05 19:27 41.46100 28.23237 14068 ft 328 kts 236°
2026-05-05 19:27 41.44740 28.20846 13700 ft 326 kts 236°
2026-05-05 19:28 41.43379 28.18453 13316 ft 322 kts 237°
2026-05-05 19:28 41.42027 28.16081 12951 ft 319 kts 237°
2026-05-05 19:28 41.40691 28.13739 12607 ft 315 kts 237°
2026-05-05 19:28 41.39259 28.11534 12244 ft 317 kts 222°
2026-05-05 19:29 41.37286 28.10203 11923 ft 320 kts 195°
2026-05-05 19:29 41.35092 28.09935 11601 ft 322 kts 179°
2026-05-05 19:29 41.32846 28.10007 11266 ft 325 kts 178°
2026-05-05 19:29 41.30584 28.10086 10895 ft 323 kts 178°
2026-05-05 19:30 41.28343 28.10145 10539 ft 320 kts 179°
2026-05-05 19:30 41.26124 28.10000 10125 ft 319 kts 195°
2026-05-05 19:30 41.24161 28.08807 10018 ft 302 kts 220°
2026-05-05 19:30 41.22643 28.07007 9911 ft 290 kts 225°
2026-05-05 19:31 41.20774 28.05818 9349 ft 305 kts 189°
2026-05-05 19:31 41.18694 28.06115 9028 ft 300 kts 156°
2026-05-05 19:31 41.16965 28.07538 8782 ft 288 kts 133°
2026-05-05 19:31 41.15665 28.09470 8533 ft 280 kts 125°
2026-05-05 19:32 41.14442 28.11461 8282 ft 276 kts 124°
2026-05-05 19:32 41.13239 28.13439 8060 ft 275 kts 124°
2026-05-05 19:32 41.12033 28.15418 7810 ft 275 kts 124°
2026-05-05 19:32 41.10838 28.17366 7576 ft 274 kts 125°
2026-05-05 19:33 41.09630 28.19323 7340 ft 274 kts 125°
2026-05-05 19:33 41.08414 28.21287 7097 ft 274 kts 125°
2026-05-05 19:33 41.07201 28.23239 6859 ft 273 kts 125°
2026-05-05 19:33 41.05990 28.25184 6632 ft 273 kts 126°
2026-05-05 19:34 41.04795 28.27102 6392 ft 272 kts 125°
2026-05-05 19:34 41.03586 28.29039 6140 ft 272 kts 125°
2026-05-05 19:34 41.02785 28.30322 5979 ft 271 kts 126°
2026-05-05 19:35 41.00005 28.34767 5428 ft 267 kts 126°
2026-05-05 19:35 40.99201 28.36051 5272 ft 266 kts 126°
2026-05-05 19:35 40.98075 28.37929 5043 ft 260 kts 116°
2026-05-05 19:35 40.97554 28.40118 4826 ft 243 kts 89°
2026-05-05 19:36 40.97502 28.42315 4616 ft 235 kts 84°
2026-05-05 19:36 40.97517 28.44462 4417 ft 231 kts 84°
2026-05-05 19:36 40.97530 28.46588 4218 ft 231 kts 84°
2026-05-05 19:36 40.97537 28.48722 4020 ft 232 kts 84°
2026-05-05 19:37 40.97388 28.50862 3817 ft 236 kts 97°
2026-05-05 19:37 40.97031 28.52978 3619 ft 236 kts 98°
2026-05-05 19:37 40.96666 28.55090 3416 ft 234 kts 98°
2026-05-05 19:37 40.96320 28.57151 3225 ft 224 kts 98°
2026-05-05 19:38 40.95995 28.59108 3043 ft 211 kts 98°
2026-05-05 19:38 40.95893 28.60943 2992 ft 189 kts 83°
2026-05-05 19:38 40.95939 28.62601 2981 ft 171 kts 84°
2026-05-05 19:38 40.95964 28.64083 2980 ft 157 kts 84°
2026-05-05 19:39 40.95986 28.65513 2989 ft 154 kts 84°
2026-05-05 19:39 40.96008 28.66932 3010 ft 156 kts 84°
2026-05-05 19:39 40.96277 28.68274 2989 ft 148 kts 45°
2026-05-05 19:39 40.97111 28.68942 3012 ft 139 kts 26°
2026-05-05 19:40 40.97939 28.69560 2995 ft 135 kts 27°
2026-05-05 19:40 40.98767 28.70178 3008 ft 137 kts 27°
2026-05-05 19:40 40.99595 28.70804 3003 ft 137 kts 29°
2026-05-05 19:40 41.00476 28.71203 2985 ft 134 kts 354°
2026-05-05 19:41 41.01398 28.71073 2989 ft 135 kts
2026-05-05 19:41 41.02332 28.71150 3002 ft 136 kts
2026-05-05 19:41 41.03279 28.71157 3010 ft 137 kts
2026-05-05 19:41 41.04224 28.71153 3004 ft 138 kts 360°
2026-05-05 19:42 41.05181 28.71144 2996 ft 138 kts 360°
2026-05-05 19:42 41.06139 28.71135 2997 ft 137 kts 360°
2026-05-05 19:42 41.07095 28.71122 3006 ft 135 kts 359°
2026-05-05 19:42 41.07992 28.71107 2989 ft 124 kts 359°
2026-05-05 19:43 41.08829 28.71091 2989 ft 119 kts 359°
2026-05-05 19:43 41.09661 28.71075 2993 ft 121 kts 359°
2026-05-05 19:43 41.10498 28.71059 3005 ft 120 kts 359°
2026-05-05 19:43 41.11342 28.71042 2997 ft 121 kts 359°
2026-05-05 19:44 41.12186 28.71026 2995 ft 121 kts 359°
2026-05-05 19:44 41.13026 28.71009 2983 ft 122 kts 359°
2026-05-05 19:44 41.13901 28.70992 2837 ft 127 kts 359°
2026-05-05 19:44 41.14781 28.70974 2671 ft 126 kts 359°
2026-05-05 19:45 41.15638 28.70957 2509 ft 124 kts 359°
2026-05-05 19:45 41.16505 28.70940 2350 ft 125 kts 359°
2026-05-05 19:45 41.17377 28.70923 2169 ft 126 kts 359°
2026-05-05 19:45 41.18253 28.70905 1999 ft 126 kts 359°
2026-05-05 19:46 41.19127 28.70888 1826 ft 126 kts 359°
2026-05-05 19:46 41.20007 28.70870 1653 ft 127 kts 359°
2026-05-05 19:46 41.20887 28.70853 1479 ft 127 kts 359°
2026-05-05 19:46 41.21770 28.70835 1307 ft 127 kts 359°
2026-05-05 19:47 41.22658 28.70818 1119 ft 128 kts 359°
2026-05-05 19:47 41.23552 28.70800 951 ft 129 kts 358°
2026-05-05 19:47 41.24455 28.70782 776 ft 130 kts 358°
2026-05-05 19:47 41.25362 28.70765 617 ft 131 kts 358°
2026-05-05 19:48 41.26276 28.70747 431 ft 132 kts 358°
2026-05-05 19:48 41.27178 28.70730 324 ft 123 kts 357°
2026-05-05 19:48 41.27949 28.70708 296 ft 95 kts 359°
2026-05-05 19:48 41.28493 28.70695 270 ft 61 kts
2026-05-05 19:49 41.28815 28.70693 257 ft 38 kts
2026-05-05 19:49 41.29051 28.70797 253 ft 35 kts 28°
2026-05-05 19:49 41.29097 28.70830 252 ft 0 kts 28°
2026-05-05 19:50 41.29106 28.70836 252 ft 4 kts 28°
2026-05-05 19:50 41.29144 28.70863 251 ft 9 kts 28°
2026-05-05 19:50 41.29209 28.70918 249 ft 13 kts 40°
2026-05-05 19:50 41.29239 28.71049 248 ft 17 kts 90°
2026-05-05 19:51 41.29239 28.71066 248 ft 0 kts 90°
2026-05-05 19:52 41.29239 28.71067 248 ft 0 kts 90°
2026-05-05 19:52 41.29239 28.71084 248 ft 4 kts 90°
2026-05-05 19:53 41.29235 28.71131 248 ft 6 kts 113°
2026-05-05 19:53 41.29197 28.71164 249 ft 7 kts 176°
2026-05-05 19:53 41.29147 28.71164 251 ft 8 kts 180°
2026-05-05 19:53 41.29090 28.71165 253 ft 9 kts 178°
2026-05-05 19:54 41.29021 28.71168 255 ft 10 kts 179°
2026-05-05 19:54 41.28944 28.71169 258 ft 11 kts 179°
2026-05-05 19:54 41.28862 28.71172 261 ft 12 kts 179°
2026-05-05 19:54 41.28777 28.71173 264 ft 12 kts 180°
2026-05-05 19:55 41.28694 28.71175 268 ft 12 kts 179°
2026-05-05 19:55 41.28614 28.71177 271 ft 11 kts 179°
2026-05-05 19:55 41.28535 28.71178 274 ft 11 kts 179°
2026-05-05 19:55 41.28454 28.71179 277 ft 12 kts 179°
2026-05-05 19:56 41.28366 28.71180 280 ft 13 kts 180°
2026-05-05 19:56 41.28267 28.71180 284 ft 15 kts 177°
2026-05-05 19:56 41.28159 28.71184 287 ft 16 kts 179°
2026-05-05 19:56 41.28039 28.71187 293 ft 18 kts 179°
2026-05-05 19:57 41.27912 28.71189 297 ft 19 kts 180°
2026-05-05 19:57 41.27820 28.71190 299 ft 20 kts 178°
2026-05-05 19:57 41.27637 28.71195 306 ft 20 kts 178°
2026-05-05 19:57 41.27501 28.71198 310 ft 20 kts 180°
2026-05-05 19:58 41.27360 28.71200 311 ft 21 kts 178°
2026-05-05 19:58 41.27227 28.71205 314 ft 18 kts 180°
2026-05-05 19:58 41.27093 28.71205 316 ft 20 kts 179°
2026-05-05 19:58 41.26950 28.71208 321 ft 21 kts 179°
2026-05-05 19:59 41.26799 28.71211 322 ft 21 kts 179°
2026-05-05 19:59 41.26702 28.71252 326 ft 14 kts 116°
2026-05-05 19:59 41.26701 28.71397 326 ft 19 kts 89°
2026-05-05 19:59 41.26703 28.71600 322 ft 26 kts 89°
2026-05-05 20:00 41.26707 28.71837 315 ft 28 kts 89°
2026-05-05 20:00 41.26709 28.72091 309 ft 19 kts 89°
2026-05-05 20:00 41.26626 28.72174 309 ft 19 kts 181°
2026-05-05 20:00 41.26486 28.72175 310 ft 22 kts 179°
2026-05-05 20:01 41.26324 28.72177 311 ft 25 kts 179°
2026-05-05 20:01 41.26210 28.72229 311 ft 17 kts 107°
2026-05-05 20:01 41.26209 28.72395 311 ft 6 kts 89°
2026-05-05 20:01 41.26209 28.72396 312 ft 0 kts 89°
2026-05-05 20:02 41.26210 28.72414 312 ft 4 kts 89°
2026-05-05 20:02 41.26211 28.72472 313 ft 8 kts 88°
2026-05-05 20:03 41.26213 28.72571 313 ft 14 kts 89°
2026-05-05 20:03 41.26214 28.72724 313 ft 18 kts 89°
2026-05-05 20:03 41.26217 28.72903 312 ft 21 kts 89°
2026-05-05 20:03 41.26219 28.73097 311 ft 18 kts 89°
2026-05-05 20:04 41.26258 28.73234 312 ft 17 kts 13°
2026-05-05 20:04 41.26374 28.73231 312 ft 17 kts 359°
2026-05-05 20:04 41.26487 28.73225 312 ft 16 kts 357°
2026-05-05 20:04 41.26591 28.73249 312 ft 15 kts 50°
2026-05-05 20:05 41.26562 28.73364 312 ft 15 kts 155°
2026-05-05 20:05 41.26468 28.73408 312 ft 14 kts 162°
2026-05-05 20:05 41.26378 28.73451 312 ft 13 kts 162°
2026-05-05 20:05 41.26291 28.73490 312 ft 13 kts 161°
2026-05-05 20:06 41.26221 28.73552 311 ft 13 kts 103°
2026-05-05 20:06 41.26249 28.73651 312 ft 0 kts 74°